Location: Cuiabá
(15.6014°S, 56.0979°W)
Time: 20:42:34
(UTC-04:00)

Hubble Space Telescope - Pass Details

Date: 01 December 2022
Orbit: 529 x 532 km, 28.5° (Epoch: 26 January)

Event Time Altitude Azimuth Distance (km) Brightness Sun altitude
Exits shadow 03:53:11 22° 343° (NNW) 1,181 2.1 -16.2°
Drops below altitude 10° 03:55:52 10° 23° (NNE) 1,774 3.4 -15.6°
Sets 03:58:24 0° 38° (NE) 2,643 4.4 -15.1°
